User: anonymous   Login
Location: Unspecified
(0.0000°N, 0.0000°E)
Time: 11:50:12
(UTC+00:00)
Language:

Vela 4A - Orbit

View from above orbital plane
View from above orbital plane
View from above satellite
View from above satellite

Ground track
Ground track

The orbit data is extracted from the following two-line orbital elements,

1 02765U 67040A   14306.69948422 -.00000994  00000-0  00000+0 0   123
2 02765 006.0494 330.0300 4670087 200.5192 002.0445 00.21522114 37288
Epoch (UTC): 02 November 2014 16:47:15
Eccentricity: 0.4670087
inclination: 6.0494°
perigee height: 56311 km
apogee height: 166168 km
right ascension of ascending node: 330.0300°
argument of perigee: 200.5192°
revolutions per day: 0.21522114
mean anomaly at epoch: 2.0445°
orbit number at epoch: 3728

The dashed part of the orbit path shows where the satellite is in the earth's shadow,  

DLR